Simultaneous Nadir Overpasses (SNOs) Predictions

Prediction of SNOs between NOAA-20 and AQUA Satellite Orbit:

Table of predicted SNOs for the next 14.0 days since TLE Epoch: 10/18/2025
Index Date (NOAA-20) Time (NOAA-20) Lat,Lon (NOAA-20) SZA (NOAA-20 ) Date (AQUA) Time (AQUA) Lat,Lon (AQUA) SZA (AQUA ) Distance(km) Time Diff (sec)
1 10/20/2025 10:31:07 81.25, -41.01 95.96 10/20/2025 10:31:46 81.25, -41.18 95.95 2.89 39
2 10/20/2025 11:21:51 -81.25, 126.65 84.08 10/20/2025 11:21:04 -81.25, 126.50 84.04 2.50 47
3 10/22/2025 20:02:09 81.25, 176.27 96.78 10/22/2025 20:02:02 81.25, 176.45 96.76 3.03 7
4 10/25/2025 04:42:26 -81.26,-133.87 82.41 10/25/2025 04:43:01 -81.24,-133.92 82.43 1.49 35
5 10/25/2025 05:33:10 81.25, 33.90 97.54 10/25/2025 05:32:17 81.26, 34.01 97.56 2.02 53
6 10/27/2025 13:22:46 81.27, -85.11 98.54 10/27/2025 13:23:59 81.21, -84.88 98.43 8.24 73
7 10/27/2025 14:13:27 -81.25, 83.72 81.66 10/27/2025 14:13:15 -81.24, 83.60 81.64 2.14 12
8 10/29/2025 22:53:44 81.25, 133.61 99.12 10/29/2025 22:54:09 81.26, 133.71 99.10 1.93 25



Historial Predications of SNOs between NOAA-20 and AQUA
